| time (UTC) | temp C | wind direction | speed KPH | gust KPH | rain 1hr cm | rain 24hr cm | rain mn cm | humidity % | barometer mb |
| 20260505153044 | 1 | 57 | 0.0 | 4.8 | 0.00 | 0.03 | 0.00 | 88 | 1018.9 |
| 20260505151543 | 1 | 126 | 0.0 | 3.2 | 0.00 | 0.03 | 0.00 | 88 | 1018.9 |
| 20260505124524 | 3 | 119 | 0.0 | 11.3 | 0.00 | 0.03 | 0.00 | 82 | 1016.8 |
| 20260505123021 | 4 | 90 | 1.6 | 8.0 | 0.00 | 0.03 | 0.00 | 81 | 1016.5 |
| 20260505121520 | 4 | 128 | 1.6 | 9.7 | 0.00 | 0.03 | 0.00 | 79 | 1016.0 |
| 20260505120019 | 4 | 117 | 0.0 | 3.2 | 0.00 | 0.03 | 0.00 | 78 | 1015.8 |
| 20260505114517 | 4 | 108 | 1.6 | 8.0 | 0.00 | 0.03 | 0.00 | 78 | 1015.8 |
| 20260505113016 | 5 | 103 | 0.0 | 3.2 | 0.00 | 0.03 | 0.00 | 79 | 1015.6 |
| 20260505111522 | 5 | 109 | 0.0 | 3.2 | 0.00 | 0.03 | 0.00 | 80 | 1015.4 |
| 20260505101509 | 5 | 141 | 0.0 | 3.2 | 0.00 | 0.03 | 0.00 | 87 | 1015.1 |
| 20260505100014 | 4 | 138 | 0.0 | 4.8 | 0.00 | 0.03 | 0.00 | 86 | 1014.9 |
| 20260505094507 | 5 | 146 | 0.0 | 3.2 | 0.00 | 0.03 | 0.00 | 86 | 1014.8 |
| 20260505093003 | 5 | 325 | 0.0 | 0.0 | 0.00 | 0.03 | 0.00 | 85 | 1014.9 |
| 20260505091500 | 5 | 324 | 0.0 | 0.0 | 0.00 | 0.03 | 0.00 | 84 | 1014.8 |
| 20260505090059 | 5 | 324 | 0.0 | 0.0 | 0.00 | 0.03 | 0.00 | 83 | 1014.9 |
| 20260505084558 | 5 | 325 | 0.0 | 1.6 | 0.00 | 0.03 | 0.00 | 82 | 1015.0 |
| 20260505083058 | 5 | 324 | 0.0 | 0.0 | 0.00 | 0.03 | 0.00 | 82 | 1015.4 |
| 20260505081610 | 5 | 324 | 0.0 | 1.6 | 0.00 | 0.03 | 0.00 | 83 | 1015.4 |
| 20260505080107 | 5 | 325 | 0.0 | 1.6 | 0.00 | 0.03 | 0.00 | 83 | 1015.3 |
| 20260505074555 | 5 | 324 | 0.0 | 1.6 | 0.00 | 0.03 | 0.00 | 83 | 1015.6 |
| 20260505073055 | 5 | 324 | 0.0 | 0.0 | 0.00 | 0.03 | 0.00 | 82 | 1015.7 |
| 20260505071556 | 5 | 324 | 0.0 | 1.6 | 0.00 | 0.03 | 0.00 | 83 | 1015.4 |
| 20260505070056 | 6 | 324 | 0.0 | 3.2 | 0.00 | 0.03 | 0.00 | 82 | 1015.6 |
| 20260505064549 | 6 | 324 | 0.0 | 4.8 | 0.00 | 0.03 | 0.03 | 83 | 1015.6 |
| 20260505063049 | 6 | 313 | 0.0 | 6.4 | 0.00 | 0.03 | 0.03 | 83 | 1015.7 |
| 20260505061546 | 6 | 313 | 0.0 | 1.6 | 0.00 | 0.03 | 0.03 | 83 | 1015.6 |
| 20260505060044 | 6 | 313 | 0.0 | 1.6 | 0.00 | 0.03 | 0.03 | 80 | 1015.6 |
| 20260505054551 | 7 | 313 | 0.0 | 4.8 | 0.00 | 0.03 | 0.03 | 75 | 1015.7 |
| 20260505053053 | 7 | 298 | 0.0 | 8.0 | 0.00 | 0.03 | 0.03 | 73 | 1015.6 |
| 20260505051542 | 7 | 281 | 0.0 | 4.8 | 0.00 | 0.03 | 0.03 | 71 | 1015.5 |
| 20260505041533 | 7 | 283 | 0.0 | 6.4 | 0.00 | 0.03 | 0.03 | 71 | 1014.7 |
| 20260505040037 | 7 | 20 | 0.0 | 3.2 | 0.00 | 0.03 | 0.03 | 68 | 1014.6 |
| 20260505034529 | 7 | 310 | 3.2 | 11.3 | 0.00 | 0.03 | 0.03 | 66 | 1014.3 |
| 20260505033031 | 7 | 300 | 1.6 | 12.9 | 0.00 | 0.03 | 0.03 | 67 | 1014.2 |
| 20260505031525 | 8 | 319 | 3.2 | 12.9 | 0.00 | 0.03 | 0.03 | 65 | 1014.2 |
| 20260505030026 | 8 | 34 | 3.2 | 12.9 | 0.00 | 0.03 | 0.03 | 64 | 1013.6 |
| 20260505024521 | 8 | 351 | 1.6 | 6.4 | 0.00 | 0.03 | 0.03 | 63 | 1014.0 |
| 20260505023021 | 8 | 330 | 0.0 | 6.4 | 0.00 | 0.03 | 0.03 | 64 | 1013.7 |
| 20260505021520 | 8 | 24 | 0.0 | 4.8 | 0.03 | 0.03 | 0.03 | 65 | 1014.2 |
| 20260505020017 | 8 | 301 | 3.2 | 6.4 | 0.03 | 0.03 | 0.03 | 62 | 1014.2 |
| 20260505014517 | 8 | 325 | 1.6 | 9.7 | 0.03 | 0.03 | 0.03 | 62 | 1013.5 |
| 20260505013015 | 9 | 330 | 8.0 | 20.9 | 0.03 | 0.03 | 0.03 | 60 | 1013.5 |
| 20260505011512 | 10 | 327 | 3.2 | 17.7 | 0.00 | 0.00 | 0.00 | 54 | 1013.4 |
| 20260505010008 | 11 | 311 | 8.0 | 12.9 | 0.00 | 0.00 | 0.00 | 50 | 1012.8 |
| 20260505004508 | 11 | 271 | 3.2 | 14.5 | 0.00 | 0.00 | 0.00 | 54 | 1012.8 |
| 20260505003005 | 12 | 105 | 8.0 | 25.7 | 0.00 | 0.00 | 0.00 | 43 | 1012.3 |
| 20260505001503 | 13 | 23 | 1.6 | 4.8 | 0.00 | 0.00 | 0.00 | 37 | 1011.5 |
| 20260505000003 | 14 | 28 | 3.2 | 9.7 | 0.00 | 0.00 | 0.00 | 37 | 1011.4 |
| 20260504234503 | 15 | 49 | 1.6 | 8.0 | 0.00 | 0.00 | 0.00 | 34 | 1011.2 |
| 20260504233002 | 15 | 118 | 1.6 | 8.0 | 0.00 | 0.00 | 0.00 | 35 | 1010.9 |
| 20260504231501 | 15 | 28 | 0.0 | 8.0 | 0.00 | 0.00 | 0.00 | 36 | 1011.1 |
| 20260504230002 | 15 | 122 | 0.0 | 4.8 | 0.00 | 0.00 | 0.00 | 38 | 1011.1 |
| 20260504224602 | 15 | 295 | 0.0 | 4.8 | 0.00 | 0.00 | 0.00 | 32 | 1010.7 |
| 20260504223100 | 15 | 99 | 0.0 | 11.3 | 0.00 | 0.00 | 0.00 | 35 | 1010.6 |
| 20260504221600 | 16 | 130 | 3.2 | 8.0 | 0.00 | 0.00 | 0.00 | 31 | 1010.8 |
| 20260504220118 | 15 | 131 | 1.6 | 8.0 | 0.00 | 0.00 | 0.00 | 31 | 1010.9 |
| 20260504214559 | 15 | 15 | 12.9 | 22.5 | 0.00 | 0.00 | 0.00 | 31 | 1011.1 |
| 20260504213101 | 15 | 324 | 1.6 | 6.4 | 0.00 | 0.00 | 0.00 | 29 | 1011.0 |
| 20260504211557 | 16 | 349 | 8.0 | 16.1 | 0.00 | 0.00 | 0.00 | 27 | 1010.5 |
| 20260504210056 | 17 | 43 | 4.8 | 16.1 | 0.00 | 0.00 | 0.00 | 26 | 1010.4 |
| 20260504204556 | 18 | 315 | 1.6 | 6.4 | 0.00 | 0.00 | 0.00 | 23 | 1010.4 |
| 20260504203055 | 18 | 136 | 1.6 | 8.0 | 0.00 | 0.00 | 0.00 | 24 | 1010.5 |
| 20260504201554 | 17 | 321 | 3.2 | 11.3 | 0.00 | 0.00 | 0.00 | 26 | 1011.1 |
| 20260504200058 | 16 | 332 | 3.2 | 19.3 | 0.00 | 0.00 | 0.00 | 28 | 1011.2 |
| 20260504194552 | 16 | 317 | 16.1 | 29.0 | 0.00 | 0.00 | 0.00 | 25 | 1011.2 |
| 20260504193051 | 18 | 24 | 6.4 | 17.7 | 0.00 | 0.00 | 0.00 | 20 | 1011.2 |
| 20260504191556 | 20 | 273 | 1.6 | 8.0 | 0.00 | 0.00 | 0.00 | 19 | 1011.2 |
| 20260504190059 | 20 | 226 | 3.2 | 11.3 | 0.00 | 0.00 | 0.00 | 19 | 1011.2 |
| 20260504184559 | 18 | 140 | 3.2 | 22.5 | 0.00 | 0.00 | 0.00 | 20 | 1011.9 |
| 20260504183050 | 18 | 222 | 1.6 | 16.1 | 0.00 | 0.00 | 0.00 | 20 | 1011.9 |
| 20260504181548 | 17 | 300 | 4.8 | 12.9 | 0.00 | 0.00 | 0.00 | 19 | 1012.5 |
| 20260504180043 | 18 | 130 | 0.0 | 16.1 | 0.00 | 0.00 | 0.00 | 22 | 1012.4 |
| 20260504174541 | 18 | 137 | 1.6 | 12.9 | 0.00 | 0.00 | 0.00 | 22 | 1012.6 |
| 20260504173039 | 15 | 286 | 1.6 | 12.9 | 0.00 | 0.00 | 0.00 | 25 | 1013.2 |
| 20260504171536 | 15 | 309 | 11.3 | 29.0 | 0.00 | 0.00 | 0.00 | 23 | 1013.2 |